Tracking 17842 objects as of 30-August-2016
HD Live streaming from Space Station
objects crossing your sky now

DELTA 2 DEB

Track DELTA 2 DEB now!
10-day predictions


NORAD ID: 27765
Int'l Code: 2000-040D
Perigee: 182.2 km
Apogee: 3,636.6 km
Inclination: 38.8 °
Period: 125.0 minutes
Semi major axis: 8280 km
RCS: 0.0144 m2 (small)
Launch date: July 16, 2000
Source: United States (US)
Launch site: AIR FORCE EASTERN TEST RANGE (AFETR)

Note: This is SATELLITE DEBRIS
Your satellite tracking list
Your tracking list is empty





NASA's NSSDC Master Catalog

Two Line Element Set (TLE):
1 27765U 00040D   16242.17409335  .00157604  16230-5  36979-3 0  9995
2 27765  38.8491 183.3835 2085910 181.6530 177.6254 11.52203508393826
Source of the keplerian elements: AFSPC

N2YO: 496